Погода в Ждимире

Россия / Орловская область     53°13′03″N   35°39′18″E
темп.,
°C
ветер,
м/с
пор.,
м/с
влажн.,
%
обл.,
%
осадки,
мм/ч
давл.,
гПа
погр.,
м
5 марта, пт
пт500:00−2з51093100 0.0 1004404
03:00−4с369399 0.1 1006185
06:00−6зсз359671 0.0 1008136
09:00−7зсз339636 0.0 101072
12:00−3зсз25892 0.0 1011476
15:00−2зсз248547 0.3 1012456
18:00−5зсз238295 0.1 101421
21:00−7зсз238989 0.1 101521
6 марта, сб
сб600:00−8з228998 0.0 101621
03:00−9зюз339373 0.0 101733
06:00−10з339721 0.0 101628
09:00−8сз379559 0.1 1018314
12:00−5ссз6883100 0.1 1018886
15:00−4ссз377981 0.1 1018587
18:00−7сз337855 0.1 101821
21:00−9з478442 0.1 102093
7 марта, вс
вс700:00−10зюз47900 0.0 1019106
03:00−10зюз611890 0.0 1017248
06:00−8юз7168667 0.0 1014502
09:00−6юз9178283 0.0 1009765
12:00−4зюз121992100 0.5 10041157
15:00−1зюз121992100 1.5 10021429
18:00−6зсз5136667 1.6 1003318
21:00−9зюз5107633 1.6 1005167
8 марта, пн
пн800:00−9юз612800 0.0 1003273
03:00−7зюз7158417 0.0 1002516
06:00−7з715861 0.0 1001608
09:00−9сз6127751 0.1 1004652
12:00−7зсз610710 0.0 10071258
15:00−6зсз58750 0.0 10091081
18:00−9з457926 0.0 101080
21:00−11з348613 0.0 101240
9 марта, вт
вт900:00−12з339317 0.0 101327
03:00−12зсз239656 0.0 101325
06:00−11с239697 0.1 101465
09:00−11с479399 0.3 1016414
12:00−10с468699 0.1 1017749
15:00−10с568399 0.1 1019862
18:00−13с348668 0.0 102159
21:00−15сз239034 0.0 102322